"Pseudo-MPEC" for X68444

Created 2020 May 24 15:07:22 UT using Find_Orb

Click here for an explanation of pseudo-MPECs

 
 Astrometry: 
     X68444   C2020 05 03NW5@RmArPS3b\2$vik?!LW%'9y5Astrometryh?=y.^Q!YJ+2BsuD29
     X68444   C2020 05 03X+S_[vPUQredacted;V20^L0Mnclick)Dm7(xlwNEp##V0bhere7D29
     X68444   C2020 05 03`ll7forI%Ha+Xhy;2FR;xD1!explanationA_l=#H'@_hf,Yi1'PD29

Station data:
(D29) Purple Mountain Observatory, XuYi Station  (N32.734366 E118.463900)
   China.  Observers H. B. Zhao, B. Li, G. Zhaori, R. Q. Hong, L. F. Hu.
   Measurers H. B. Zhao, B. Li. H. Lu, G. Zhaori. 1.04-m f/1.8 Schmidt + CCD.

Orbital elements:  X68444
   Perihelion 2020 Apr 13.343532 +/- 23.5 TT =  8:14:41 (JD 2458952.843532)
Epoch 2020 May  4.0 TT = JDT 2458973.5   Earth MOID: 0.4991   Ma: 0.0534
M   4.58117796 +/- 9                (J2000 ecliptic)          AutoNEOCP
n   0.22177934 +/- 0.253            Peri.   68.33063 +/- 60
a   2.70305771 +/- 2.05             Node   138.41472 +/- 50
e   0.5279505 +/- 0.283             Incl.   32.88730 +/- 9
P   4.44                   H 19.3   G  0.15   U 11.8  SR
q 1.27597680 +/- 0.162    Q 4.13013862 +/- 45.9
From 3 observations 2020 May 3 (54.7 min); mean residual 0".29
Residuals in arcseconds: 
200503 D29  .28-  .06+    200503 D29  .57+  .11-    200503 D29  .28-  .06+    

Ephemerides (geocentric):
Date (UTC) HH   RA              Dec         delta   r     elong  mag " sig PA
---- -- -- --  -------------   -----------  ------ ------ -----  --- ---- ---
2020 05 24 15  17 12 56.844   +57 22 09.71  .73207 1.3538 100.5 21.1  45d  57
2020 05 24 16  17 12 55.810   +57 21 18.30  .73210 1.3539 100.5 21.1  45d  57
2020 05 24 17  17 12 54.775   +57 20 26.81  .73213 1.3541 100.6 21.1  45d  57
2020 05 24 18  17 12 53.737   +57 19 35.25  .73216 1.3542 100.6 21.1  46d  57
2020 05 24 19  17 12 52.698   +57 18 43.62  .73219 1.3544 100.6 21.1  46d  57
2020 05 24 20  17 12 51.657   +57 17 51.91  .73222 1.3545 100.6 21.1  46d  57
2020 05 24 21  17 12 50.615   +57 17 00.12  .73225 1.3547 100.6 21.1  46d  57
2020 05 24 22  17 12 49.570   +57 16 08.26  .73228 1.3548 100.6 21.1  46d  57
2020 05 24 23  17 12 48.524   +57 15 16.33  .73231 1.3550 100.6 21.1  46d  57
2020 05 25 00  17 12 47.476   +57 14 24.32  .73234 1.3551 100.6 21.1  46d  57
2020 05 25 01  17 12 46.427   +57 13 32.24  .73237 1.3553 100.7 21.1  46d  57
2020 05 25 02  17 12 45.375   +57 12 40.08  .73240 1.3554 100.7 21.1  46d  57
2020 05 25 03  17 12 44.322   +57 11 47.85  .73243 1.3556 100.7 21.1  46d  56
2020 05 25 04  17 12 43.268   +57 10 55.54  .73246 1.3557 100.7 21.1  46d  56
2020 05 25 05  17 12 42.211   +57 10 03.16  .73249 1.3559 100.7 21.1  46d  56
2020 05 25 06  17 12 41.153   +57 09 10.70  .73252 1.3560 100.7 21.1  46d  56
2020 05 25 07  17 12 40.094   +57 08 18.17  .73255 1.3562 100.7 21.1  46d  56
2020 05 25 08  17 12 39.033   +57 07 25.56  .73258 1.3563 100.8 21.1  44d  59
2020 05 25 09  17 12 37.970   +57 06 32.87  .73261 1.3565 100.8 21.1  44d  59
2020 05 25 10  17 12 36.905   +57 05 40.12  .73264 1.3566 100.8 21.1  44d  59
2020 05 25 11  17 12 35.839   +57 04 47.28  .73267 1.3568 100.8 21.1  44d  58
2020 05 25 12  17 12 34.771   +57 03 54.37  .73270 1.3569 100.8 21.1  44d  58
2020 05 25 13  17 12 33.702   +57 03 01.39  .73273 1.3571 100.8 21.1  44d  58
2020 05 25 14  17 12 32.631   +57 02 08.33  .73275 1.3572 100.8 21.1  44d  58
2020 05 25 15  17 12 31.559   +57 01 15.20  .73278 1.3574 100.8 21.1  44d  58
2020 05 25 16  17 12 30.485   +57 00 21.99  .73281 1.3576 100.9 21.1  44d  58
2020 05 25 17  17 12 29.410   +56 59 28.70  .73284 1.3577 100.9 21.1  44d  58
2020 05 25 18  17 12 28.333   +56 58 35.34  .73287 1.3579 100.9 21.1  44d  58
2020 05 25 19  17 12 27.254   +56 57 41.90  .73290 1.3580 100.9 21.1  44d  58
2020 05 25 20  17 12 26.174   +56 56 48.39  .73293 1.3582 100.9 21.1  44d  58
2020 05 25 21  17 12 25.092   +56 55 54.81  .73296 1.3583 100.9 21.1  44d  58
2020 05 25 22  17 12 24.009   +56 55 01.14  .73299 1.3585 100.9 21.1  44d  58
2020 05 25 23  17 12 22.925   +56 54 07.41  .73302 1.3586 101.0 21.1  44d  58
2020 05 26 00  17 12 21.839   +56 53 13.59  .73305 1.3588 101.0 21.1  44d  58
2020 05 26 01  17 12 20.752   +56 52 19.71  .73307 1.3589 101.0 21.1  44d  58
2020 05 26 02  17 12 19.663   +56 51 25.74  .73310 1.3591 101.0 21.1  44d  58
2020 05 26 03  17 12 18.573   +56 50 31.70  .73313 1.3592 101.0 21.1  44d  57
2020 05 26 04  17 12 17.481   +56 49 37.59  .73316 1.3594 101.0 21.1  45d  57
2020 05 26 05  17 12 16.388   +56 48 43.40  .73319 1.3595 101.0 21.1  45d  57
2020 05 26 06  17 12 15.293   +56 47 49.13  .73322 1.3597 101.0 21.1  45d  57
2020 05 26 07  17 12 14.198   +56 46 54.79  .73325 1.3599 101.1 21.1  45d  57
2020 05 26 08  17 12 13.100   +56 46 00.37  .73328 1.3600 101.1 21.1  45d  57
2020 05 26 09  17 12 12.002   +56 45 05.88  .73330 1.3602 101.1 21.1  45d  57
2020 05 26 10  17 12 10.902   +56 44 11.31  .73333 1.3603 101.1 21.1  45d  57
2020 05 26 11  17 12 09.801   +56 43 16.66  .73336 1.3605 101.1 21.1  45d  57
2020 05 26 12  17 12 08.698   +56 42 21.94  .73339 1.3606 101.1 21.1  45d  57
2020 05 26 13  17 12 07.594   +56 41 27.14  .73342 1.3608 101.1 21.1  45d  57
2020 05 26 14  17 12 06.489   +56 40 32.27  .73345 1.3609 101.2 21.1  45d  57